Total_Precipitation_Accumulation
0.00 0.00 0.00 0.00 0.02 0.05 0.03 0.04 0.05 0.07 0.08 0.06 0.03 0.02 0.01 0.02 0.02 0.04 0.02 0.02 0.03 0.04 0.02 0.01 0.00 0.00 0.00 0.01 0.02 0.00 0.02 0.00 0.00 0.03 0.06 0.04 0.02 0.01 0.01 0.00 0.00 0.00 0.00 0.01 0.03 0.08 0.04 0.00 0.00 0.00 0.00 0.00 0.00 0.00
0.01 0.00 0.00 0.00 0.00 0.03 0.05 0.05 0.06 0.10 0.11 0.09 0.05 0.03 0.02 0.02 0.02 0.04 0.07 0.05 0.08 0.18 0.17 0.02 0.00 0.00 0.00 0.00 0.00 0.00 0.02 0.01 0.03 0.07 0.08 0.11 0.08 0.04 0.01 0.01 0.00 0.00 0.00 0.00 0.01 0.00 0.00 0.00 0.00 0.00 0.00 0.00 0.00 0.00
0.01 0.01 0.00 0.00 0.00 0.00 0.04 0.05 0.05 0.14 0.16 0.13 0.09 0.03 0.02 0.02 0.01 0.02 0.05 0.05 0.15 0.28 0.26 0.11 0.02 0.00 0.00 0.00 0.00 0.12 0.05 0.00 0.00 0.01 0.13 0.18 0.17 0.08 0.04 0.02 0.00 0.00 0.00 0.00 0.00 0.00 0.00 0.00 0.00 0.00 0.00 0.00 0.00 0.00
0.00 0.00 0.00 0.00 0.00 0.00 0.02 0.05 0.03 0.11 0.16 0.13 0.10 0.03 0.01 0.01 0.02 0.02 0.07 0.07 0.15 0.39 0.31 0.05 0.00 0.00 0.00 0.00 0.00 0.01 0.01 0.01 0.04 0.11 0.48 0.47 0.24 0.06 0.02 0.01 0.01 0.00 0.00 0.00 0.00 0.00 0.00 0.00 0.00 0.00 0.00 0.00 0.00 0.00
0.00 0.00 0.00 0.00 0.00 0.00 0.01 0.02 0.03 0.03 0.10 0.10 0.11 0.05 0.02 0.02 0.03 0.03 0.04 0.06 0.09 0.28 0.36 0.08 0.00 0.00 0.00 0.00 0.00 0.00 0.00 0.03 0.16 0.61 0.64 0.30 0.13 0.09 0.08 0.07 0.03 0.00 0.00 0.00 0.01 0.00 0.00 0.00 0.00 0.00 0.00 0.00 0.00 0.00
0.00 0.00 0.01 0.01 0.01 0.00 0.00 0.00 0.01 0.02 0.03 0.04 0.06 0.05 0.04 0.06 0.07 0.17 0.21 0.03 0.03 0.17 0.57 0.43 0.07 0.00 0.00 0.00 0.00 0.00 0.00 0.01 0.25 0.53 0.33 0.16 0.07 0.12 0.27 0.10 0.01 0.00 0.00 0.00 0.01 0.00 0.00 0.00 0.00 0.00 0.00 0.00 0.00 0.00
0.01 0.00 0.00 0.01 0.00 0.00 0.00 0.00 0.01 0.01 0.01 0.01 0.02 0.01 0.03 0.10 0.17 0.27 0.23 0.20 0.37 0.64 1.08 0.65 0.16 0.00 0.00 0.00 0.01 0.02 0.10 0.26 0.33 0.46 0.35 0.19 0.16 0.35 0.51 0.16 0.00 0.00 0.00 0.00 0.00 0.00 0.00 0.00 0.00 0.00 0.00 0.00 0.00 0.00
0.03 0.00 0.01 0.01 0.01 0.01 0.01 0.01 0.01 0.01 0.01 0.01 0.01 0.01 0.03 0.11 0.21 0.18 0.10 0.11 0.34 0.79 0.73 0.54 0.10 0.00 0.00 0.01 0.02 0.04 0.08 0.20 0.37 0.34 0.26 0.14 0.11 0.17 0.16 0.00 0.00 0.00 0.00 0.00 0.00 0.00 0.00 0.00 0.00 0.00 0.00 0.00 0.00 0.00
0.05 0.01 0.00 0.00 0.01 0.01 0.01 0.01 0.01 0.02 0.02 0.02 0.02 0.05 0.13 0.20 0.14 0.04 0.03 0.10 0.21 0.35 0.47 0.31 0.05 0.00 0.00 0.00 0.02 0.06 0.11 0.18 0.15 0.13 0.04 0.04 0.05 0.04 0.01 0.00 0.00 0.00 0.00 0.00 0.00 0.00 0.00 0.00 0.00 0.00 0.00 0.00 0.00 0.00
0.04 0.02 0.00 0.00 0.00 0.01 0.01 0.01 0.01 0.02 0.02 0.02 0.03 0.16 0.18 0.06 0.08 0.09 0.20 0.33 0.51 0.54 0.45 0.15 0.00 0.00 0.00 0.00 0.04 0.04 0.05 0.05 0.03 0.02 0.01 0.05 0.01 0.00 0.00 0.00 0.00 0.01 0.01 0.00 0.00 0.00 0.00 0.00 0.00 0.00 0.00 0.00 0.00 0.00
0.02 0.03 0.01 0.00 0.01 0.01 0.01 0.01 0.01 0.03 0.02 0.03 0.13 0.16 0.12 0.18 0.47 0.53 0.43 0.40 0.29 0.32 0.15 0.03 0.00 0.00 0.00 0.00 0.01 0.01 0.00 0.00 0.01 0.00 0.01 0.01 0.00 0.00 0.00 0.00 0.00 0.00 0.00 0.00 0.00 0.00 0.00 0.01 0.01 0.02 0.01 0.01 0.02 0.03
0.03 0.03 0.02 0.01 0.01 0.00 0.01 0.01 0.02 0.05 0.16 0.30 0.27 0.19 0.25 0.47 0.65 0.77 0.35 0.17 0.12 0.03 0.00 0.00 0.00 0.00 0.00 0.00 0.01 0.02 0.02 0.03 0.02 0.01 0.08 0.01 0.00 0.00 0.00 0.00 0.00 0.00 0.00 0.00 0.00 0.00 0.00 0.01 0.02 0.04 0.07 0.11 0.19 0.26
0.04 0.02 0.02 0.01 0.01 0.01 0.00 0.00 0.02 0.03 0.04 0.09 0.16 0.19 0.25 0.38 0.44 0.33 0.15 0.06 0.01 0.00 0.00 0.00 0.00 0.00 0.01 0.01 0.04 0.05 0.04 0.02 0.01 0.05 0.02 0.00 0.00 0.00 0.00 0.00 0.00 0.00 0.00 0.00 0.00 0.00 0.02 0.07 0.10 0.18 0.33 0.45 0.46 0.47
0.07 0.02 0.01 0.01 0.01 0.01 0.00 0.01 0.01 0.03 0.12 0.25 0.22 0.17 0.15 0.19 0.06 0.03 0.00 0.00 0.00 0.00 0.00 0.00 0.00 0.01 0.03 0.05 0.09 0.07 0.03 0.02 0.02 0.02 0.00 0.00 0.00 0.00 0.00 0.00 0.00 0.00 0.01 0.01 0.04 0.08 0.15 0.21 0.30 0.35 0.43 0.47 0.38 0.48
0.06 0.05 0.03 0.01 0.01 0.01 0.01 0.01 0.03 0.08 0.25 0.23 0.23 0.12 0.04 0.00 0.00 0.00 0.00 0.00 0.00 0.00 0.00 0.00 0.01 0.02 0.06 0.07 0.06 0.03 0.03 0.01 0.00 0.00 0.00 0.00 0.00 0.00 0.00 0.00 0.01 0.01 0.03 0.08 0.11 0.13 0.19 0.23 0.20 0.33 0.45 0.42 0.42 0.47
0.07 0.04 0.03 0.02 0.02 0.03 0.04 0.06 0.14 0.14 0.22 0.16 0.13 0.07 0.04 0.01 0.01 0.00 0.00 0.00 0.00 0.00 0.01 0.04 0.09 0.08 0.09 0.03 0.03 0.01 0.01 0.00 0.00 0.00 0.00 0.00 0.00 0.00 0.00 0.01 0.02 0.04 0.08 0.11 0.14 0.18 0.21 0.24 0.28 0.34 0.29 0.27 0.32 0.30
0.09 0.02 0.00 0.05 0.09 0.09 0.14 0.24 0.32 0.27 0.15 0.12 0.03 0.00 0.02 0.02 0.01 0.00 0.00 0.00 0.00 0.02 0.06 0.11 0.05 0.02 0.02 0.03 0.01 0.00 0.00 0.00 0.00 0.00 0.00 0.00 0.01 0.01 0.01 0.01 0.02 0.03 0.05 0.11 0.18 0.20 0.27 0.26 0.11 0.05 0.14 0.14 0.07 0.05
0.04 0.00 0.01 0.07 0.17 0.21 0.15 0.19 0.32 0.21 0.09 0.02 0.01 0.00 0.00 0.00 0.00 0.01 0.00 0.00 0.06 0.18 0.07 0.03 0.01 0.00 0.00 0.00 0.00 0.00 0.00 0.00 0.00 0.00 0.00 0.01 0.01 0.00 0.00 0.02 0.03 0.04 0.09 0.13 0.11 0.17 0.15 0.04 0.02 0.03 0.03 0.01 0.01 0.01
0.00 0.00 0.01 0.08 0.16 0.26 0.33 0.14 0.20 0.21 0.04 0.00 0.00 0.00 0.00 0.00 0.00 0.02 0.04 0.01 0.01 0.15 0.28 0.18 0.06 0.01 0.00 0.01 0.00 0.00 0.00 0.00 0.00 0.01 0.01 0.02 0.02 0.01 0.03 0.05 0.08 0.10 0.13 0.12 0.06 0.04 0.02 0.00 0.01 0.00 0.00 0.00 0.01 0.01
0.06 0.03 0.03 0.08 0.12 0.24 0.31 0.23 0.08 0.14 0.08 0.02 0.00 0.00 0.00 0.01 0.00 0.00 0.04 0.12 0.12 0.16 0.27 0.23 0.11 0.01 0.00 0.00 0.00 0.00 0.00 0.00 0.00 0.01 0.02 0.05 0.06 0.02 0.05 0.10 0.19 0.20 0.12 0.04 0.01 0.00 0.00 0.00 0.01 0.00 0.00 0.00 0.01 0.01
0.13 0.07 0.12 0.13 0.17 0.28 0.26 0.28 0.17 0.06 0.03 0.01 0.00 0.00 0.00 0.03 0.02 0.02 0.03 0.08 0.28 0.31 0.10 0.02 0.01 0.01 0.01 0.00 0.00 0.00 0.00 0.00 0.00 0.00 0.01 0.07 0.10 0.05 0.11 0.19 0.23 0.13 0.03 0.02 0.01 0.02 0.01 0.01 0.01 0.00 0.00 0.01 0.01 0.01
0.10 0.21 0.28 0.16 0.30 0.34 0.20 0.11 0.09 0.05 0.04 0.01 0.02 0.02 0.02 0.04 0.05 0.03 0.02 0.06 0.08 0.03 0.00 0.00 0.00 0.00 0.00 0.00 0.00 0.01 0.00 0.00 0.00 0.01 0.03 0.03 0.04 0.05 0.11 0.18 0.12 0.03 0.01 0.01 0.00 0.01 0.01 0.01 0.00 0.00 0.00 0.00 0.00 0.00
0.16 0.19 0.30 0.30 0.39 0.30 0.16 0.11 0.17 0.08 0.05 0.09 0.08 0.08 0.10 0.05 0.03 0.01 0.06 0.02 0.00 0.00 0.00 0.00 0.00 0.00 0.01 0.05 0.05 0.01 0.00 0.00 0.00 0.01 0.01 0.01 0.04 0.05 0.06 0.06 0.01 0.00 0.01 0.01 0.00 0.00 0.01 0.00 0.00 0.00 0.00 0.00 0.00 0.00
0.19 0.35 0.40 0.23 0.12 0.16 0.34 0.23 0.19 0.14 0.04 0.19 0.17 0.11 0.09 0.04 0.11 0.02 0.01 0.01 0.00 0.00 0.00 0.00 0.00 0.02 0.05 0.06 0.02 0.01 0.00 0.00 0.00 0.00 0.00 0.00 0.02 0.05 0.02 0.01 0.00 0.00 0.00 0.00 0.00 0.01 0.01 0.00 0.00 0.00 0.00 0.00 0.00 0.00
0.34 0.32 0.27 0.13 0.04 0.17 0.23 0.20 0.14 0.16 0.10 0.15 0.09 0.08 0.06 0.05 0.07 0.01 0.00 0.01 0.01 0.02 0.01 0.01 0.01 0.01 0.02 0.04 0.02 0.01 0.00 0.00 0.00 0.01 0.01 0.00 0.00 0.01 0.02 0.02 0.01 0.01 0.00 0.00 0.00 0.00 0.00 0.00 0.00 0.00 0.00 0.00 0.00 0.00
0.21 0.16 0.12 0.04 0.02 0.07 0.10 0.15 0.13 0.04 0.05 0.05 0.02 0.02 0.03 0.00 0.00 0.01 0.01 0.00 0.01 0.01 0.01 0.00 0.01 0.02 0.03 0.01 0.01 0.01 0.01 0.00 0.00 0.01 0.03 0.01 0.00 0.00 0.01 0.02 0.01 0.01 0.00 0.00 0.00 0.00 0.00 0.00 0.00 0.00 0.00 0.00 0.00 0.00
0.09 0.06 0.03 0.03 0.02 0.02 0.03 0.06 0.11 0.13 0.03 0.02 0.01 0.00 0.00 0.00 0.00 0.02 0.03 0.00 0.00 0.00 0.00 0.00 0.00 0.00 0.01 0.01 0.00 0.00 0.00 0.00 0.00 0.00 0.02 0.00 0.00 0.00 0.00 0.00 0.00 0.01 0.00 0.00 0.00 0.00 0.00 0.00 0.00 0.00 0.00 0.00 0.00 0.00
0.04 0.05 0.02 0.02 0.03 0.01 0.03 0.07 0.07 0.07 0.01 0.00 0.00 0.00 0.00 0.00 0.01 0.03 0.02 0.01 0.01 0.01 0.01 0.02 0.02 0.01 0.00 0.00 0.00 0.00 0.00 0.00 0.00 0.00 0.00 0.00 0.00 0.00 0.00 0.00 0.00 0.00 0.00 0.00 0.00 0.00 0.00 0.00 0.00 0.00 0.00 0.00 0.00 0.00
0.07 0.02 0.02 0.04 0.03 0.01 0.03 0.07 0.05 0.01 0.00 0.00 0.00 0.00 0.00 0.02 0.04 0.05 0.05 0.02 0.01 0.00 0.03 0.07 0.12 0.05 0.02 0.01 0.01 0.00 0.00 0.00 0.00 0.00 0.00 0.00 0.01 0.01 0.00 0.00 0.00 0.00 0.00 0.00 0.00 0.00 0.00 0.00 0.00 0.00 0.00 0.00 0.00 0.00
0.06 0.06 0.06 0.02 0.01 0.01 0.02 0.01 0.00 0.00 0.00 0.00 0.00 0.00 0.01 0.05 0.13 0.12 0.11 0.08 0.04 0.03 0.01 0.00 0.01 0.01 0.01 0.01 0.03 0.04 0.01 0.00 0.00 0.00 0.00 0.00 0.00 0.00 0.00 0.00 0.00 0.00 0.00 0.00 0.00 0.00 0.00 0.00 0.00 0.00 0.00 0.00 0.00 0.00
0.06 0.04 0.02 0.01 0.02 0.05 0.02 0.00 0.00 0.00 0.00 0.00 0.00 0.00 0.01 0.06 0.12 0.15 0.12 0.15 0.09 0.02 0.02 0.01 0.01 0.00 0.00 0.00 0.00 0.00 0.00 0.00 0.00 0.00 0.00 0.00 0.00 0.00 0.00 0.00 0.00 0.00 0.00 0.00 0.00 0.00 0.00 0.00 0.00 0.00 0.00 0.00 0.00 0.00
0.03 0.00 0.00 0.01 0.07 0.08 0.02 0.00 0.00 0.01 0.00 0.00 0.00 0.00 0.00 0.00 0.02 0.06 0.13 0.16 0.16 0.06 0.03 0.00 0.01 0.02 0.00 0.00 0.00 0.00 0.00 0.00 0.00 0.00 0.00 0.00 0.00 0.00 0.00 0.00 0.00 0.00 0.00 0.00 0.00 0.00 0.00 0.00 0.00 0.00 0.00 0.00 0.00 0.00
0.00 0.00 0.00 0.00 0.02 0.01 0.00 0.00 0.00 0.02 0.02 0.03 0.03 0.01 0.00 0.00 0.01 0.02 0.07 0.09 0.05 0.01 0.01 0.01 0.02 0.02 0.00 0.00 0.00 0.00 0.00 0.00 0.00 0.00 0.00 0.00 0.00 0.00 0.00 0.00 0.00 0.00 0.00 0.00 0.00 0.00 0.00 0.00 0.00 0.00 0.00 0.00 0.00 0.00